TimeCST,TemperatureF,Dew PointF,Humidity,Sea Level PressureIn,VisibilityMPH,Wind Direction,Wind SpeedMPH,Gust SpeedMPH,PrecipitationIn,Events,Conditions,WindDirDegrees,DateUTC
12:53 AM,37.0,28.9,73,30.43,10.0,NNE,8.1,-,N/A,,Clear,20,2012-12-30 06:53:00
1:53 AM,37.9,28.0,68,30.45,10.0,NE,8.1,-,N/A,,Clear,40,2012-12-30 07:53:00
2:53 AM,37.0,28.0,70,30.45,10.0,NE,6.9,-,N/A,,Clear,40,2012-12-30 08:53:00
3:53 AM,37.0,27.0,67,30.46,10.0,NNE,9.2,-,N/A,,Clear,30,2012-12-30 09:53:00
4:53 AM,36.0,26.1,67,30.46,10.0,NNE,11.5,-,N/A,,Clear,30,2012-12-30 10:53:00
5:53 AM,35.1,26.1,70,30.47,10.0,NE,12.7,-,N/A,,Clear,40,2012-12-30 11:53:00
6:53 AM,34.0,26.1,73,30.48,10.0,NE,9.2,-,N/A,,Clear,50,2012-12-30 12:53:00
7:53 AM,35.1,25.0,67,30.50,10.0,ENE,9.2,-,N/A,,Clear,60,2012-12-30 13:53:00
8:53 AM,37.9,26.1,62,30.53,10.0,ENE,13.8,-,N/A,,Clear,60,2012-12-30 14:53:00
9:53 AM,41.0,26.1,55,30.52,10.0,East,10.4,-,N/A,,Clear,80,2012-12-30 15:53:00
10:53 AM,45.0,26.1,48,30.51,10.0,East,8.1,-,N/A,,Clear,90,2012-12-30 16:53:00
11:53 AM,46.9,26.1,44,30.46,10.0,NE,9.2,-,N/A,,Clear,40,2012-12-30 17:53:00
12:53 PM,50.0,27.0,41,30.43,10.0,Variable,6.9,-,N/A,,Clear,0,2012-12-30 18:53:00
1:53 PM,52.0,27.0,38,30.40,10.0,East,6.9,-,N/A,,Clear,90,2012-12-30 19:53:00
2:53 PM,53.1,26.1,35,30.41,10.0,SE,3.5,-,N/A,,Clear,130,2012-12-30 20:53:00
3:53 PM,52.0,27.0,38,30.41,10.0,Calm,Calm,-,N/A,,Clear,0,2012-12-30 21:53:00
4:53 PM,51.1,27.0,39,30.40,10.0,Calm,Calm,-,N/A,,Clear,0,2012-12-30 22:53:00
5:53 PM,45.0,33.1,63,30.41,10.0,SSW,3.5,-,N/A,,Clear,200,2012-12-30 23:53:00
6:53 PM,43.0,35.1,74,30.40,10.0,Calm,Calm,-,N/A,,Clear,0,2012-12-31 00:53:00
7:53 PM,44.1,36.0,73,30.38,10.0,Calm,Calm,-,N/A,,Overcast,0,2012-12-31 01:53:00
8:53 PM,43.0,36.0,76,30.37,10.0,ENE,3.5,-,N/A,,Clear,70,2012-12-31 02:53:00
9:53 PM,43.0,34.0,71,30.35,10.0,East,5.8,-,N/A,,Clear,80,2012-12-31 03:53:00
10:53 PM,43.0,34.0,71,30.33,10.0,East,5.8,-,N/A,,Clear,80,2012-12-31 04:53:00
11:53 PM,44.1,32.0,63,30.32,10.0,East,3.5,-,N/A,,Clear,80,2012-12-31 05:53:00